Weather History for Williston, ND

Change the Weather History Date:

Thursday, October 4, 2012

  Actual Average Record
Temperature  
Mean Temperature 36 °F 48 °F  
Max Temperature 43 °F 63 °F 93 °F (1963)
Min Temperature 28 °F 34 °F 19 °F (2004)
Degree Days  
Heating Degree Days 29 17  
Month to date heating degree days 74 64  
Since 1 July heating degree days 302 410  
Cooling Degree Days 0 0  
Month to date cooling degree days 0 0  
Year to date cooling degree days 532 455  
Moisture  
Dew Point 28 °F    
Average Humidity 75    
Maximum Humidity 100    
Minimum Humidity 49    
Precipitation  
Precipitation 0.00 in 0.03 in 1.23 in (1998)
Month to date precipitation 0.70 0.14  
Year to date precipitation 10.29 12.32  
Snow  
Snow 0.00 in 0.10 in 2.40 in (1898)
Month to date snowfall 0.0 0.2  
Snow Depth 0.00 in    
Sea Level Pressure  
Sea Level Pressure 30.44 in    
Wind  
Wind Speed 10 mph (NNW)    
Max Wind Speed 16 mph    
Max Gust Speed 21 mph    
Visibility 10 miles    
Events      
T = Trace of Precipitation, MM = Missing Value Source: NWS Daily Summary

Daily Weather History Graph

Daily Weather History Graph

Search for Another Location

Airport:

Trip Planner

Search our weather history database for the weather conditions in past years. The results will help you decide how hot, cold, wet, or windy it might be!

Date:

Astronomy

Oct. 04, 2012 Rise Set
Actual Time 7:58 AM CDT 7:26 PM CDT
Civil Twilight 7:27 AM CDT 7:57 PM CDT
Nautical Twilight 6:51 AM CDT 8:33 PM CDT
Astronomical Twilight 6:15 AM CDT 9:09 PM CDT
Moon 9:42 PM CDT (10/4) 12:39 PM CDT (10/4)
Length of Visible Light 12h 29m
Length of Day
11h 27m
Waning Gibbous, 82% of the Moon is Illuminated
Oct 4
Waning Gibbous
Oct 8
Last Quarter
Oct 15
New
Oct 21
First Quarter
Oct 29
Full

Hourly Weather History & Observations

Time (CDT) Temp. Windchill Dew Point Humidity Pressure Visibility Wind Dir Wind Speed Gust Speed Precip Events Conditions
12:05 AM 37.4 °F 29.3 °F 35.6 °F 93% 30.38 in 10.0 mi North 12.7 mph - N/A   Overcast
12:23 AM 37.4 °F 29.8 °F 35.6 °F 93% 30.38 in 10.0 mi North 11.5 mph - N/A   Overcast
12:52 AM 36.0 °F 30.3 °F 35.1 °F 97% 30.44 in 10.0 mi North 6.9 mph - N/A   Overcast
1:52 AM 35.1 °F 27.9 °F 33.1 °F 92% 30.44 in 10.0 mi North 9.2 mph - N/A   Overcast
2:52 AM 33.1 °F 24.9 °F 30.9 °F 92% 30.46 in 10.0 mi NW 10.4 mph - N/A   Partly Cloudy
3:52 AM 33.1 °F 24.4 °F 30.9 °F 92% 30.45 in 10.0 mi NNW 11.5 mph - N/A   Overcast
4:52 AM 32.0 °F 23.0 °F 30.0 °F 92% 30.46 in 10.0 mi NNW 11.5 mph - N/A   Clear
5:52 AM 30.9 °F 22.8 °F 28.9 °F 92% 30.46 in 10.0 mi NNW 9.2 mph - N/A   Clear
6:52 AM 30.9 °F 21.7 °F 28.9 °F 92% 30.46 in 10.0 mi NNW 11.5 mph - N/A   Scattered Clouds
7:52 AM 30.0 °F 22.4 °F 28.9 °F 96% 30.47 in 10.0 mi North 8.1 mph - N/A   Scattered Clouds
8:52 AM 30.9 °F 25.2 °F 28.9 °F 92% 30.48 in 10.0 mi NNW 5.8 mph - N/A   Scattered Clouds
9:52 AM 33.1 °F 24.9 °F 30.0 °F 89% 30.48 in 10.0 mi NNW 10.4 mph - N/A   Mostly Cloudy
10:52 AM 36.0 °F 29.0 °F 30.9 °F 82% 30.48 in 10.0 mi North 9.2 mph - N/A   Partly Cloudy
11:52 AM 37.9 °F 29.6 °F 27.0 °F 65% 30.47 in 10.0 mi North 13.8 mph - N/A   Overcast
11:58 AM 37.4 °F 29.3 °F 26.6 °F 65% 30.40 in 10.0 mi NNW 12.7 mph - N/A   Overcast
12:25 PM 37.4 °F 29.3 °F 26.6 °F 65% 30.41 in 10.0 mi North 12.7 mph - N/A   Overcast
12:52 PM 37.9 °F 30.0 °F 27.0 °F 65% 30.48 in 10.0 mi NNW 12.7 mph - N/A   Overcast
1:52 PM 37.9 °F 30.5 °F 26.1 °F 62% 30.47 in 10.0 mi North 11.5 mph 18.4 mph N/A   Overcast
2:52 PM 42.1 °F 35.2 °F 26.1 °F 53% 30.44 in 10.0 mi NW 12.7 mph - N/A   Mostly Cloudy
3:52 PM 42.1 °F 36.1 °F 25.0 °F 51% 30.43 in 10.0 mi North 10.4 mph - N/A   Mostly Cloudy
4:52 PM 41.0 °F 34.7 °F 24.1 °F 51% 30.43 in 10.0 mi NNW 10.4 mph - N/A   Overcast
5:52 PM 41.0 °F 34.7 °F 25.0 °F 53% 30.43 in 10.0 mi NNW 10.4 mph - N/A   Mostly Cloudy
6:52 PM 39.0 °F 31.4 °F 26.1 °F 60% 30.43 in 10.0 mi NW 12.7 mph - N/A   Mostly Cloudy
7:52 PM 37.9 °F 30.9 °F 26.1 °F 62% 30.44 in 10.0 mi NW 10.4 mph - N/A   Overcast
8:52 PM 37.0 °F 31.6 °F 27.0 °F 67% 30.45 in 10.0 mi NNW 6.9 mph - N/A   Overcast
9:52 PM 35.6 °F 29.2 °F 24.8 °F 65% 30.38 in 10.0 mi North 8.1 mph - N/A   Overcast
10:52 PM 33.1 °F 26.9 °F 24.1 °F 70% 30.45 in 10.0 mi NW 6.9 mph - N/A   Partly Cloudy
11:52 PM 30.9 °F 22.8 °F 23.0 °F 72% 30.45 in 10.0 mi NNW 9.2 mph - N/A   Clear